Regional Weather Roundup
Issued by NWS Kansas City/Pleasant Hill, MO

Home | Current Version | Previous Version | Graphics & Text | Print | Product List | Glossary Off
Versions: 1 2 3 4 5 6 7 8 9 10 11 12 13 14 15 16 17 18 19 20 21 22 23 24 25 26 27 28 29 30 31 32 33 34 35 36 37 38 39 40 41 42 43 44 45 46 47 48

000
ASUS43 KEAX 070910
RWREAX

WEATHER ROUNDUP FOR EASTERN KANSAS AND NORTHWEST MISSOURI
NATIONAL WEATHER SERVICE KANSAS CITY/PLEASANT HILL MO
400 AM CDT TUE JUL 07 2015

KSZ040-057-103>105-MOZ028-029-037-043-071000-
...KANSAS CITY METROPOLITAN AREA...

CITY           SKY/WX    TMP DP  RH WIND       PRES   REMARKS
K.C. INTL      LGT RAIN  61  60  97 NE9       30.01R FOG
K.C. DOWNTOWN  RAIN      62  60  93 NE13G21   30.00R FOG
LEES SUMMIT    RAIN      62  60  93 N22G28    29.98R FOG
OLATHE - IXD   CLOUDY    63  62  97 N22       29.98R FOG
OLATHE - OJC   LGT RAIN  63  63 100 N14       29.98R FOG
LAWRENCE       RAIN      62  59  90 NE12G18   30.02R FOG

$$

MOZ001>008-011>017-020>025-030>033-038>040-044>046-053-054-071000-
...NORTHERN AND CENTRAL MISSOURI...

CITY           SKY/WX    TMP DP  RH WIND       PRES   REMARKS
ST. JOSEPH     CLOUDY    67  63  87 MISG      30.02R FOG
MOSBY          HVY RAIN  61  61 100 N8G16     29.99F
WARRENSBURG    CLOUDY    63  63 100 N18       29.94S FOG
WHITEMAN AFB   MOCLDY    69  68  96 N16G24    29.92F
CLINTON        CLOUDY    73  73 100 CALM      29.93S
SEDALIA        LGT RAIN  73  70  90 N7        29.93F
WARSAW         NOT AVBL
CHILLICOTHE      N/A     63  61  93 VRB3      30.02R
KIRKSVILLE     CLOUDY    65  59  81 N10       29.96S HAZE

$$

MOZ041-047>049-056>058-063>065-088>090-097-071000-
...EASTERN AND SOUTHERN MISSOURI...

CITY           SKY/WX    TMP DP  RH WIND       PRES   REMARKS
ST. LOUIS INTL CLOUDY    81  71  71 W13       29.89R
SPIRIT OF STL  LGT RAIN  76  71  85 W12G23    29.88R
COLUMBIA       CLOUDY    72  70  93 W7        29.92S
ROLLA          LGT RAIN  70  69  97 SW8       29.94S
OSAGE BEACH    CLOUDY    72  68  88 CALM      29.94S
SPRINGFIELD    LGT RAIN  74  72  93 CALM      29.94F
BRANSON        CLOUDY    77  68  73 CALM      29.96S
JOPLIN         CLOUDY    73  71  93 SW5       29.94S FOG
WEST PLAINS    CLOUDY    77  71  82 SW9       29.98S

$$

IAZ060-094-KSZ022-034>040-054-083-096-NEZ052-066-093-071000-
...KANSAS...SOUTHEAST NEBRASKA AND IOWA...

CITY           SKY/WX    TMP DP  RH WIND       PRES   REMARKS
TOPEKA         RAIN      63  62  97 CALM      30.02R FOG
MANHATTAN      CLOUDY    68  62  81 N10       30.03S HAZE
EMPORIA        LGT RAIN  62  60  93 N15G30    29.99R FOG
CHANUTE        CLOUDY    72  71  97 NE5       29.93F
WICHITA        LGT RAIN  66  63  90 NE16G25   30.00S FOG
OMAHA          CLEAR     58  53  84 N9        30.09S
LINCOLN        CLEAR     59  54  83 N9        30.11S
FALLS CITY     CLOUDY    64  58  80 N8        30.04R
LAMONI         PTCLDY    63  59  87 N12       30.01R FOG
DES MOINES     CLEAR     62  52  69 N15G22    30.01S

$$




USA.gov is the U.S. government's official web portal to all federal, state and local government web resources and services.